Location: Atherton
(17.2661°S, 145.4859°E)
Time: 05:21:48
(UTC+10:00)

Transit 4A - Pass Details

Date: 01 July 2025
Orbit: 868 x 973 km, 66.8° (Epoch: 20 July)

Event Time Altitude Azimuth Distance (km) Brightness Sun altitude
Rises 05:59:39 0° 182° (S) 3,661 10.8 -11.6°
Reaches altitude 10° 06:02:47 10° 168° (SSE) 2,720 10.3 -10.9°
Maximum altitude 06:07:44 23° 116° (ESE) 1,924 10.1 -9.8°
Drops below altitude 10° 06:12:39 10° 65° (ENE) 2,712 12.1 -8.7°
Sets 06:15:45 0° 51° (NE) 3,649 12.7 -8.1°
